TimeCDT,TemperatureF,Dew PointF,Humidity,Sea Level PressureIn,VisibilityMPH,Wind Direction,Wind SpeedMPH,Gust SpeedMPH,PrecipitationIn,Events,Conditions,WindDirDegrees,DateUTC
12:03 AM,64.4,62.6,94,29.83,8.0,SSW,9.2,-,0.03,Rain-Thunderstorm,Light Thunderstorms and Rain,200,2013-05-29 05:03:00
12:20 AM,64.4,60.8,88,29.85,9.0,South,13.8,-,0.05,Rain,Light Rain,180,2013-05-29 05:20:00
12:53 AM,63.0,60.1,90,29.77,10.0,South,9.2,-,0.07,Rain-Thunderstorm,Light Rain,180,2013-05-29 05:53:00
1:13 AM,64.4,59.0,83,29.80,8.0,South,16.1,27.6,0.04,Rain,Light Rain,190,2013-05-29 06:13:00
1:44 AM,62.6,59.0,88,29.71,10.0,SE,16.1,28.8,0.06,Rain,Light Rain,130,2013-05-29 06:44:00
1:53 AM,64.0,59.0,84,29.70,10.0,ESE,8.1,25.3,0.06,,Mostly Cloudy,110,2013-05-29 06:53:00
2:07 AM,62.6,60.8,94,29.84,10.0,West,20.7,25.3,N/A,,Mostly Cloudy,260,2013-05-29 07:07:00
2:16 AM,62.6,59.0,88,29.85,10.0,SW,18.4,26.5,N/A,,Overcast,230,2013-05-29 07:16:00
2:39 AM,62.6,59.0,88,29.84,10.0,South,3.5,-,N/A,,Scattered Clouds,180,2013-05-29 07:39:00
2:53 AM,62.1,59.0,90,29.79,10.0,SSE,6.9,-,N/A,,Clear,150,2013-05-29 07:53:00
3:53 AM,61.0,59.0,93,29.78,10.0,SE,8.1,-,N/A,,Clear,140,2013-05-29 08:53:00
4:53 AM,61.0,57.9,90,29.79,10.0,SSE,9.2,-,N/A,,Clear,150,2013-05-29 09:53:00
5:53 AM,62.1,59.0,90,29.80,10.0,SSE,6.9,-,N/A,,Partly Cloudy,150,2013-05-29 10:53:00
6:53 AM,63.0,59.0,87,29.80,10.0,SSE,9.2,-,N/A,,Scattered Clouds,150,2013-05-29 11:53:00
7:53 AM,64.9,60.1,84,29.80,10.0,South,8.1,16.1,N/A,,Overcast,170,2013-05-29 12:53:00
8:53 AM,70.0,63.0,78,29.78,10.0,South,11.5,21.9,N/A,,Mostly Cloudy,170,2013-05-29 13:53:00
9:53 AM,72.0,64.9,78,29.76,10.0,South,13.8,20.7,N/A,,Clear,180,2013-05-29 14:53:00
10:53 AM,75.0,66.0,73,29.76,10.0,South,17.3,24.2,N/A,,Mostly Cloudy,180,2013-05-29 15:53:00
11:53 AM,78.1,68.0,71,29.75,10.0,South,17.3,25.3,N/A,,Scattered Clouds,180,2013-05-29 16:53:00
12:43 PM,78.8,68.0,69,29.77,10.0,South,12.7,21.9,N/A,,Mostly Cloudy,180,2013-05-29 17:43:00
12:53 PM,78.1,68.0,71,29.75,10.0,South,12.7,18.4,N/A,,Mostly Cloudy,180,2013-05-29 17:53:00
1:04 PM,78.8,69.8,74,29.76,10.0,South,13.8,20.7,N/A,,Mostly Cloudy,170,2013-05-29 18:04:00
1:42 PM,77.0,69.8,78,29.76,10.0,SSE,10.4,17.3,N/A,,Overcast,160,2013-05-29 18:42:00
1:53 PM,78.1,69.1,74,29.74,10.0,South,19.6,25.3,N/A,,Mostly Cloudy,180,2013-05-29 18:53:00
2:53 PM,80.1,68.0,67,29.71,10.0,South,23.0,28.8,0.02,,Scattered Clouds,180,2013-05-29 19:53:00
3:53 PM,82.0,68.0,62,29.69,10.0,South,19.6,28.8,N/A,,Scattered Clouds,190,2013-05-29 20:53:00
4:53 PM,81.0,64.9,58,29.67,10.0,South,23.0,32.2,N/A,,Clear,190,2013-05-29 21:53:00
5:53 PM,80.1,64.9,60,29.67,10.0,South,19.6,28.8,N/A,,Clear,180,2013-05-29 22:53:00
6:53 PM,78.1,64.9,64,29.66,10.0,South,16.1,29.9,N/A,,Overcast,170,2013-05-29 23:53:00
7:53 PM,77.0,64.0,64,29.68,10.0,South,15.0,24.2,N/A,,Overcast,180,2013-05-30 00:53:00
8:53 PM,75.0,64.0,69,29.70,10.0,South,8.1,-,N/A,,Overcast,170,2013-05-30 01:53:00
9:53 PM,75.0,64.9,71,29.70,10.0,SSE,8.1,-,N/A,,Overcast,160,2013-05-30 02:53:00
10:53 PM,73.9,64.9,73,29.70,10.0,SSE,11.5,19.6,0.01,Rain,Light Rain,160,2013-05-30 03:53:00
11:11 PM,73.4,64.4,73,29.71,10.0,SSE,11.5,19.6,0.01,Thunderstorm,Overcast,150,2013-05-30 04:11:00
11:26 PM,73.4,64.4,73,29.70,10.0,SSE,12.7,19.6,0.01,,Mostly Cloudy,150,2013-05-30 04:26:00
11:53 PM,73.0,64.0,73,29.66,10.0,SSE,13.8,26.5,0.01,,Overcast,160,2013-05-30 04:53:00